Weather History for K2DP - January, 2014

Change the Weather History Date:

Thursday, January 30, 2014

  Actual Average (KMQI) Record (KMQI)
Temperature  
Mean Temperature 27 °F -  
Max Temperature 39 °F 48 °F 80 °F (2002)
Min Temperature 15 °F 36 °F 19 °F (1977)
Degree Days  
Heating Degree Days 38    
Moisture  
Dew Point 26 °F    
Average Humidity 78    
Maximum Humidity 100    
Minimum Humidity 65    
Precipitation  
Precipitation 0.79 in - - ()
Sea Level Pressure  
Sea Level Pressure 30.32 in    
Wind  
Wind Speed 8 mph (North)    
Max Wind Speed 14 mph    
Max Gust Speed 21 mph    
Visibility 12 miles    
Events Rain    
Averages and records for this station are not official NWS values.
T = Trace of Precipitation, MM = Missing Value Source: NWS Daily Summary

Daily Weather History Graph

Daily Weather History Graph

Search for Another Location

Airport or City:

Trip Planner

Search our weather history database for the weather conditions in past years. The results will help you decide how hot, cold, wet, or windy it might be!

Date:

Astronomy

Jan. 30, 2014 Rise Set
Actual Time 7:05 AM EST 5:29 PM EST
Civil Twilight 6:38 AM EST 5:56 PM EST
Nautical Twilight 6:07 AM EST 6:26 PM EST
Astronomical Twilight 5:37 AM EST 6:56 PM EST
Moon 6:30 AM EST (1/30) 5:36 PM EST (1/30)
Length of Visible Light 11h 17m
Length of Day
10h 24m
Waning Crescent, 0% of the Moon is Illuminated
Jan 30
Waning Crescent
Jan 30
New
Feb 6
First Quarter
Feb 14
Full
Feb 22
Last Quarter

Hourly Weather History & Observations

Time (EST) Temp. Windchill Dew Point Humidity Pressure Visibility Wind Dir Wind Speed Gust Speed Precip Events Conditions
12:56 AM 15.4 °F 8.1 °F 9.5 °F 77% 30.40 in 12.0 mi NNW 4.6 mph - N/A   Partly Cloudy
1:56 AM 17.1 °F 8.7 °F 10.4 °F 75% 30.40 in 12.0 mi NW 5.8 mph - N/A   Mostly Cloudy
2:56 AM 18.9 °F 9.8 °F 12.0 °F 75% 30.39 in 12.0 mi NNW 6.9 mph - N/A   Mostly Cloudy
3:56 AM 21.2 °F 12.6 °F 12.0 °F 68% 30.38 in 12.0 mi North 6.9 mph - N/A   Mostly Cloudy
4:56 AM 23.2 °F 14.1 °F 13.1 °F 65% 30.39 in 12.0 mi NNW 8.1 mph - N/A   Mostly Cloudy
5:56 AM 23.5 °F 14.5 °F 15.3 °F 71% 30.39 in 12.0 mi North 8.1 mph - N/A   Mostly Cloudy
6:56 AM 24.4 °F 15.6 °F 17.1 °F 73% 30.40 in 12.0 mi NNW 8.1 mph 17.3 mph N/A   Mostly Cloudy
7:56 AM 24.8 °F 15.3 °F 18.5 °F 77% 30.40 in 12.0 mi NNW 9.2 mph - N/A   Scattered Clouds
8:56 AM 28.0 °F 18.1 °F 21.2 °F 76% 30.42 in 12.0 mi NNW 11.5 mph - N/A   Clear
9:56 AM 32.7 °F 25.0 °F 24.4 °F 72% 30.41 in 12.0 mi North 9.2 mph - 0.01 in   Mostly Cloudy
10:56 AM 36.3 °F 28.4 °F 26.8 °F 68% 30.41 in 12.0 mi NNE 11.5 mph - N/A   Mostly Cloudy
11:13 AM 37.4 °F 29.8 °F 26.6 °F 65% 30.41 in 12.0 mi NNE 11.5 mph - N/A   Mostly Cloudy
11:23 AM 37.4 °F 29.8 °F 28.4 °F 70% 30.40 in 12.0 mi NNE 11.5 mph 17.3 mph N/A   Scattered Clouds
11:56 AM 37.8 °F 30.2 °F 28.2 °F 68% 30.38 in 12.0 mi NNE 11.5 mph 20.7 mph 0.07 in   Partly Cloudy
12:56 PM 38.5 °F 30.3 °F 29.3 °F 70% 30.33 in 12.0 mi NNE 13.8 mph 17.3 mph 0.19 in   Mostly Cloudy
1:56 PM 39.0 °F 31.0 °F 29.8 °F 70% 30.31 in 12.0 mi NNE 13.8 mph - 0.19 in   Mostly Cloudy
2:31 PM 39.2 °F 32.5 °F 30.2 °F 70% 30.31 in 12.0 mi North 10.4 mph - N/A   Light Drizzle
2:56 PM 39.4 °F 32.3 °F 31.3 °F 73% 30.30 in 12.0 mi North 11.5 mph - 0.14 in Rain Light Rain Showers
2:59 PM 39.2 °F 32.5 °F 32.0 °F 75% 30.30 in 12.0 mi North 10.4 mph - N/A   Mostly Cloudy
3:56 PM 39.0 °F 32.8 °F 31.3 °F 74% 30.30 in 12.0 mi NNE 9.2 mph - 0.10 in   Mostly Cloudy
4:56 PM 37.4 °F 32.1 °F 30.2 °F 75% 30.29 in 12.0 mi North 6.9 mph - 0.05 in   Overcast
5:56 PM 35.2 °F 29.5 °F 29.3 °F 79% 30.26 in 12.0 mi North 6.9 mph - N/A   Mostly Cloudy
6:56 PM 34.7 °F 28.8 °F 29.8 °F 82% 30.25 in 12.0 mi North 6.9 mph - N/A   Overcast
7:42 PM 35.6 °F 29.9 °F 30.2 °F 81% 30.23 in 12.0 mi NNW 6.9 mph - N/A   Overcast
7:47 PM 35.6 °F 28.6 °F 30.2 °F 81% 30.24 in 12.0 mi NNW 9.2 mph - N/A Rain Light Rain Showers
7:56 PM 34.3 °F 27.0 °F 30.7 °F 87% 30.23 in 12.0 mi North 9.2 mph - N/A Rain Light Rain Showers
8:05 PM 33.8 °F 27.7 °F 30.2 °F 87% 30.23 in 12.0 mi North 6.9 mph - N/A   Overcast
8:56 PM 34.5 °F 29.4 °F 31.3 °F 88% 30.23 in 12.0 mi NW 5.8 mph - N/A   Overcast
9:18 PM 33.8 °F 29.6 °F 32.0 °F 93% 30.22 in 12.0 mi NNW 4.6 mph - N/A   Light Drizzle
9:56 PM 33.8 °F 27.0 °F 32.2 °F 94% 30.25 in 12.0 mi WNW 8.1 mph - N/A Rain Light Rain Showers
10:56 PM 33.4 °F 29.1 °F 32.7 °F 97% 30.22 in 11.0 mi North 4.6 mph - 0.04 in Rain Light Rain Showers
11:05 PM 33.8 °F 29.6 °F 33.8 °F 100% 30.23 in 12.0 mi NNW 4.6 mph - N/A   Overcast
11:56 PM 33.6 °F 30.6 °F 33.1 °F 98% 30.21 in 12.0 mi NW 3.5 mph - N/A   Overcast